EN

Hourly Weather Bolshoe Ozero

Today, 23 October, Friday

Time Temperature Precipitation Wind Pressure Humidity
00:00 -5°C° 0 mm 2 mps 742 mmHg 87%
01:00 -6°C° 0 mm 2 mps 742 mmHg 88%
02:00 -6°C° 0 mm 2 mps 743 mmHg 89%
03:00 -6°C° 0 mm 2 mps 743 mmHg 89%
04:00 -4°C° 0 mm 1 mps 744 mmHg 89%
05:00 -4°C° 0 mm 1 mps 744 mmHg 89%
06:00 -4°C° 0 mm 1 mps 744 mmHg 89%
07:00 -5°C° 0 mm 0 mps 744 mmHg 89%
08:00 -3°C° 0 mm 1 mps 744 mmHg 83%
09:00 -3°C° 0 mm 1 mps 744 mmHg 77%
10:00 -2°C° 0 mm 1 mps 744 mmHg 72%
11:00 -1°C° 0 mm 1 mps 744 mmHg 69%
12:00 -2°C° 0 mm 2 mps 744 mmHg 67%
13:00 -2°C° 0 mm 2 mps 744 mmHg 65%
14:00 -2°C° 0 mm 2 mps 744 mmHg 69%
15:00 -2°C° 0 mm 2 mps 744 mmHg 73%
16:00 -2°C° 0 mm 2 mps 744 mmHg 77%
17:00 -3°C° 0 mm 2 mps 743 mmHg 79%
18:00 -3°C° 0 mm 2 mps 743 mmHg 82%
19:00 -5°C° 0 mm 3 mps 743 mmHg 85%
20:00 -4°C° 0 mm 3 mps 743 mmHg 84%
21:00 -4°C° 0 mm 4 mps 742 mmHg 82%
22:00 -4°C° 0 mm 4 mps 742 mmHg 81%
23:00 -5°C° 0.2 mm 5 mps 741 mmHg 86%

Tomorrow, 24 October, Saturday

Time Temperature Precipitation Wind Pressure Humidity
00:00 -4°C° 0.2 mm 5 mps 740 mmHg 90%
01:00 -4°C° 0.2 mm 5 mps 739 mmHg 95%
02:00 -4°C° 0.3 mm 5 mps 738 mmHg 95%
03:00 -4°C° 0.3 mm 6 mps 738 mmHg 95%
04:00 -3°C° 0.3 mm 6 mps 737 mmHg 95%
05:00 -3°C° 0.5 mm 6 mps 736 mmHg 95%
06:00 -1°C° 0.5 mm 5 mps 735 mmHg 95%
07:00 0°C° 0.5 mm 5 mps 734 mmHg 95%
08:00 0°C° 0.6 mm 5 mps 733 mmHg 96%
09:00 0°C° 0.6 mm 5 mps 733 mmHg 96%
10:00 +1°C° 0.6 mm 5 mps 732 mmHg 96%
11:00 +1°C° 1.1 mm 4 mps 732 mmHg 97%
12:00 +1°C° 1.1 mm 4 mps 731 mmHg 97%
13:00 +3°C° 1.1 mm 3 mps 731 mmHg 98%
14:00 +2°C° 0.6 mm 3 mps 731 mmHg 98%
15:00 +3°C° 0.6 mm 2 mps 731 mmHg 98%
16:00 +3°C° 0.6 mm 2 mps 731 mmHg 99%
17:00 +3°C° 0 mm 2 mps 731 mmHg 99%
18:00 +3°C° 0 mm 2 mps 732 mmHg 99%
19:00 +3°C° 0 mm 2 mps 732 mmHg 99%
20:00 +3°C° 0 mm 2 mps 733 mmHg 99%
21:00 +2°C° 0 mm 3 mps 733 mmHg 98%
22:00 +2°C° 0 mm 3 mps 734 mmHg 98%
23:00 +2°C° 0 mm 3 mps 734 mmHg 98%

Day after tomorrow, 25 October, Sunday

Time Temperature Precipitation Wind Pressure Humidity
00:00 +3°C° 0 mm 3 mps 734 mmHg 97%
01:00 +3°C° 0 mm 3 mps 734 mmHg 96%
02:00 +3°C° 0.1 mm 3 mps 735 mmHg 97%
03:00 +3°C° 0.1 mm 3 mps 735 mmHg 98%
04:00 +3°C° 0.1 mm 3 mps 735 mmHg 98%
05:00 +3°C° 0 mm 3 mps 735 mmHg 98%
06:00 +3°C° 0 mm 3 mps 736 mmHg 97%
07:00 +3°C° 0 mm 3 mps 736 mmHg 97%
08:00 +3°C° 0 mm 3 mps 736 mmHg 96%
09:00 +3°C° 0 mm 3 mps 736 mmHg 95%
10:00 +3°C° 0 mm 3 mps 737 mmHg 95%
11:00 +3°C° 0 mm 3 mps 737 mmHg 93%
12:00 +4°C° 0 mm 3 mps 737 mmHg 91%
13:00 +4°C° 0 mm 3 mps 737 mmHg 89%
14:00 +5°C° 0 mm 2 mps 737 mmHg 88%
15:00 +4°C° 0 mm 2 mps 737 mmHg 88%
16:00 +5°C° 0 mm 1 mps 737 mmHg 88%
17:00 +5°C° 0 mm 1 mps 737 mmHg 89%
18:00 +4°C° 0 mm 1 mps 737 mmHg 89%
19:00 +4°C° 0 mm 1 mps 737 mmHg 90%
20:00 +4°C° 0 mm 1 mps 737 mmHg 91%
21:00 +4°C° 0 mm 1 mps 737 mmHg 91%
22:00 +4°C° 0 mm 1 mps 737 mmHg 91%
23:00 +3°C° 0 mm 1 mps 736 mmHg 91%

26 October, Monday

Time Temperature Precipitation Wind Pressure Humidity
00:00 +3°C° 0 mm 1 mps 736 mmHg 90%
01:00 +2°C° 0 mm 0 mps 736 mmHg 90%
02:00 +3°C° 0 mm 1 mps 735 mmHg 91%
03:00 +2°C° 0 mm 1 mps 735 mmHg 91%
04:00 +2°C° 0 mm 1 mps 735 mmHg 92%
05:00 +1°C° 0 mm 2 mps 735 mmHg 93%
06:00 +1°C° 0 mm 2 mps 735 mmHg 93%
07:00 0°C° 0 mm 3 mps 735 mmHg 94%
08:00 0°C° 0 mm 3 mps 735 mmHg 91%
09:00 -1°C° 0 mm 4 mps 735 mmHg 88%
10:00 -1°C° 0 mm 4 mps 735 mmHg 85%
11:00 -1°C° 0 mm 5 mps 735 mmHg 83%
12:00 -1°C° 0 mm 5 mps 735 mmHg 82%
13:00 -2°C° 0 mm 6 mps 736 mmHg 80%
14:00 -2°C° 0 mm 6 mps 736 mmHg 80%
15:00 -2°C° 0 mm 6 mps 737 mmHg 80%
16:00 -3°C° 0 mm 6 mps 737 mmHg 79%
17:00 -3°C° 0 mm 6 mps 738 mmHg 82%
18:00 -3°C° 0 mm 6 mps 738 mmHg 84%
19:00 -3°C° 0 mm 6 mps 739 mmHg 87%
20:00 -3°C° 0 mm 6 mps 740 mmHg 85%
21:00 -3°C° 0 mm 6 mps 740 mmHg 83%
22:00 -3°C° 0 mm 6 mps 741 mmHg 82%
23:00 -3°C° 0 mm 6 mps 742 mmHg 81%

27 October, Tuesday

Time Temperature Precipitation Wind Pressure Humidity
00:00 -4°C° 0 mm 6 mps 742 mmHg 81%
01:00 -4°C° 0 mm 6 mps 743 mmHg 81%
02:00 -4°C° 0 mm 6 mps 744 mmHg 81%
03:00 -5°C° 0 mm 6 mps 744 mmHg 81%
04:00 -5°C° 0 mm 6 mps 745 mmHg 81%
05:00 -5°C° 0 mm 5 mps 745 mmHg 82%
06:00 -5°C° 0 mm 5 mps 746 mmHg 82%
07:00 -5°C° 0 mm 5 mps 747 mmHg 82%
08:00 -4°C° 0 mm 4 mps 747 mmHg 82%
09:00 -4°C° 0 mm 4 mps 748 mmHg 81%
10:00 -4°C° 0 mm 4 mps 748 mmHg 80%
11:00 -3°C° 0 mm 4 mps 748 mmHg 78%
12:00 -2°C° 0 mm 3 mps 749 mmHg 76%
13:00 -1°C° 0 mm 3 mps 749 mmHg 74%
14:00 -1°C° 0 mm 3 mps 749 mmHg 75%
15:00 -1°C° 0 mm 3 mps 750 mmHg 77%
16:00 -1°C° 0 mm 2 mps 750 mmHg 78%
17:00 -2°C° 0 mm 2 mps 750 mmHg 80%
18:00 -2°C° 0 mm 2 mps 750 mmHg 83%
19:00 -3°C° 0 mm 2 mps 751 mmHg 85%
20:00 -3°C° 0 mm 2 mps 751 mmHg 85%
21:00 -3°C° 0 mm 2 mps 751 mmHg 85%
22:00 -3°C° 0 mm 2 mps 751 mmHg 85%
23:00 -3°C° 0 mm 2 mps 751 mmHg 86%

28 October, Wednesday

Time Temperature Precipitation Wind Pressure Humidity
00:00 -3°C° 0 mm 2 mps 751 mmHg 87%
01:00 -3°C° 0 mm 2 mps 751 mmHg 87%
02:00 -3°C° 0 mm 2 mps 751 mmHg 87%
03:00 -3°C° 0 mm 2 mps 751 mmHg 87%
04:00 -3°C° 0 mm 2 mps 751 mmHg 86%
05:00 -3°C° 0 mm 2 mps 751 mmHg 86%
06:00 -4°C° 0 mm 3 mps 751 mmHg 85%
07:00 -2°C° 0 mm 3 mps 751 mmHg 85%
08:00 -2°C° 0 mm 3 mps 751 mmHg 84%
09:00 -2°C° 0 mm 3 mps 751 mmHg 83%
10:00 -1°C° 0 mm 3 mps 751 mmHg 82%
11:00 0°C° 0 mm 3 mps 751 mmHg 79%
12:00 0°C° 0 mm 3 mps 751 mmHg 76%
13:00 0°C° 0 mm 4 mps 751 mmHg 73%
14:00 0°C° 0 mm 4 mps 750 mmHg 73%
15:00 0°C° 0 mm 4 mps 750 mmHg 74%
16:00 -1°C° 0 mm 4 mps 750 mmHg 74%
17:00 -1°C° 0 mm 4 mps 750 mmHg 75%
18:00 -1°C° 0 mm 4 mps 750 mmHg 76%
19:00 -1°C° 0 mm 4 mps 750 mmHg 77%
20:00 -1°C° 0 mm 4 mps 750 mmHg 77%
21:00 -1°C° 0 mm 4 mps 749 mmHg 77%
22:00 -2°C° 0 mm 4 mps 749 mmHg 78%
23:00 -2°C° 0 mm 4 mps 749 mmHg 79%
Show more